Location: Ernez
(36.4595°N, 29.8755°E)
Time: 08:02:14
(UTC+00:00)

Delta 2 Rocket - Pass Details

Date: 13 November 2025
Orbit: 357 x 510 km, 35.6° (Epoch: 04 December)

Event Time Altitude Azimuth Distance (km) Brightness Sun altitude
Rises 15:46:33 0° 276° (W) 2,647 8.3 -11.0°
Reaches altitude 10° 15:48:49 10° 272° (W) 1,760 7.2 -11.4°
Maximum altitude 15:52:48 56° 194° (SSW) 622 3.7 -12.2°
Enters shadow 15:56:15 13° 118° (ESE) 1,544 5.2 -12.9°
